This is the latest recevied weather packets stored in our database for station/object K1LBG. If no packets are shown the sender has not sent any weather packets the latest 10 day(s).
| Time | Temp. | Humidity | Pressure | Rain* | Wind** | Luminosity | Snow |
|---|---|---|---|---|---|---|---|
| 1777844791 | 11.11° C | 45% | 1007.3 hPa | 0 mm | - | - | - |
| 1777843586 | 11.67° C | 44% | 1006.9 hPa | 0 mm | - | - | - |
| 1777841191 | 11.67° C | 45% | 1006.3 hPa | 0 mm | - | - | - |
| 1777839385 | 12.22° C | 44% | 1006.1 hPa | 0 mm | - | - | - |
| 1777835791 | 11.67° C | 48% | 1005.9 hPa | 0 mm | - | - | - |
| 1777835221 | 11.11° C | 49% | 1006 hPa | 0 mm | - | - | - |
| 1777834919 | 11.11° C | 52% | 1006.1 hPa | 0 mm | - | - | - |
| 1777834587 | 10.56° C | 48% | 1006.2 hPa | 0 mm | - | - | - |
| 1777834311 | 11.11° C | 51% | 1006.2 hPa | 0 mm | - | - | - |
| 1777832198 | 11.67° C | 53% | 1006 hPa | 0 mm | - | - | - |
| 1777830983 | 11.11° C | 55% | 1006.1 hPa | 0 mm | - | - | - |
| 1777830413 | 11.11° C | 54% | 1006 hPa | 0 mm | - | - | - |
| 1777830118 | 11.11° C | 55% | 1006.1 hPa | 0 mm | - | - | - |
| 1777828293 | 10.56° C | 56% | 1006.1 hPa | 0 mm | - | - | - |
| 1777827099 | 10° C | 61% | 1006.3 hPa | 0 mm | - | - | - |
| 1777825912 | 8.89° C | 63% | 1006.2 hPa | 0 mm | - | - | - |
| 1777824088 | 8.33° C | 70% | 1006.2 hPa | 0 mm | - | - | - |
| 1777823211 | 7.78° C | 75% | 1006.2 hPa | 0 mm | - | - | - |
| 1777822933 | 7.78° C | 77% | 1006.3 hPa | 0 mm | - | - | - |
| 1777821679 | 7.22° C | 82% | 1006 hPa | 0 mm | - | - | - |
| 1777819886 | 6.67° C | 90% | 1006.1 hPa | 0.25 mm | - | - | - |
| 1777818092 | 6.67° C | 88% | 1006.2 hPa | 0.25 mm | - | - | - |
| 1777817194 | 7.22° C | 82% | 1006.1 hPa | 0.25 mm | - | - | - |
| 1777816936 | 7.78° C | 79% | 1006 hPa | 0 mm | - | - | - |
| 1777816586 | 8.33° C | 73% | 1005.8 hPa | 0 mm | - | - | - |
* Rain latest hour (hover to see other rain measurements)
** Current wind speed in m/s (hover to see current wind gust speed)